| time (UTC) | temp F | wind direction | speed MPH | gust MPH | rain 1hr in | rain 24hr in | rain mn in | humidity % | barometer mb |
| 20260903075519 | 60 | 186 | 0.0 | 0.0 | 0.00 | 0.00 | 0.00 | 93 | 1018.0 |
| 20260903075015 | 60 | 186 | 0.0 | 0.0 | 0.00 | 0.00 | 0.00 | 93 | 1017.9 |
| 20260903074508 | 60 | 183 | 0.0 | 0.0 | 0.00 | 0.00 | 0.00 | 93 | 1018.0 |
| 20260903074003 | 60 | 183 | 0.0 | 0.0 | 0.00 | 0.00 | 0.00 | 93 | 1017.9 |
| 20260903073458 | 60 | 184 | 0.0 | 0.0 | 0.00 | 0.00 | 0.00 | 94 | 1017.9 |
| 20260903072953 | 60 | 193 | 0.0 | 0.0 | 0.00 | 0.00 | 0.00 | 93 | 1017.9 |
| 20260903072449 | 60 | 191 | 0.0 | 0.0 | 0.00 | 0.00 | 0.00 | 93 | 1017.8 |
| 20260903071941 | 60 | 191 | 0.0 | 0.0 | 0.00 | 0.00 | 0.00 | 93 | 1017.8 |
| 20260903071436 | 60 | 200 | 0.0 | 0.0 | 0.00 | 0.00 | 0.00 | 93 | 1017.8 |
| 20260903070932 | 60 | 203 | 0.0 | 0.0 | 0.00 | 0.00 | 0.00 | 94 | 1017.7 |
| 20260903070431 | 60 | 189 | 0.0 | 0.0 | 0.00 | 0.00 | 0.00 | 93 | 1017.7 |
| 20260903065926 | 60 | 191 | 0.0 | 0.0 | 0.00 | 0.00 | 0.00 | 93 | 1017.8 |
| 20260903065421 | 60 | 193 | 0.0 | 0.0 | 0.00 | 0.00 | 0.00 | 93 | 1017.9 |
| 20260903064920 | 60 | 195 | 0.0 | 0.0 | 0.00 | 0.00 | 0.00 | 94 | 1018.0 |
| 20260903064416 | 60 | 211 | 0.0 | 0.0 | 0.00 | 0.00 | 0.00 | 94 | 1017.9 |
| 20260903063911 | 60 | 211 | 0.0 | 0.0 | 0.00 | 0.00 | 0.00 | 94 | 1017.8 |
| 20260903063406 | 60 | 202 | 0.0 | 0.0 | 0.00 | 0.00 | 0.00 | 94 | 1018.0 |
| 20260903062902 | 60 | 198 | 0.0 | 0.0 | 0.00 | 0.00 | 0.00 | 94 | 1018.0 |
| 20260903062356 | 60 | 202 | 0.0 | 0.0 | 0.00 | 0.00 | 0.00 | 94 | 1018.0 |
| 20260903061852 | 60 | 202 | 0.0 | 0.0 | 0.00 | 0.00 | 0.00 | 94 | 1017.9 |
| 20260903061351 | 61 | 202 | 0.0 | 0.0 | 0.00 | 0.00 | 0.00 | 93 | 1017.9 |
| 20260903060848 | 61 | 197 | 0.0 | 0.0 | 0.00 | 0.00 | 0.00 | 93 | 1017.8 |
| 20260903060347 | 61 | 200 | 0.0 | 0.0 | 0.00 | 0.00 | 0.00 | 92 | 1017.7 |
| 20260903055845 | 61 | 189 | 0.0 | 1.0 | 0.00 | 0.00 | 0.00 | 92 | 1017.8 |
| 20260903055343 | 62 | 193 | 0.0 | 2.0 | 0.00 | 0.00 | 0.00 | 90 | 1017.7 |
| 20260903054838 | 62 | 168 | 1.0 | 2.0 | 0.00 | 0.00 | 0.00 | 91 | 1017.8 |
| 20260903054338 | 61 | 171 | 0.0 | 0.0 | 0.00 | 0.00 | 0.00 | 92 | 1017.5 |
| 20260903053834 | 61 | 171 | 0.0 | 0.0 | 0.00 | 0.00 | 0.00 | 92 | 1017.7 |
| 20260903053330 | 61 | 171 | 0.0 | 0.0 | 0.00 | 0.00 | 0.00 | 92 | 1017.6 |
| 20260903052826 | 61 | 171 | 0.0 | 0.0 | 0.00 | 0.00 | 0.00 | 92 | 1017.4 |
| 20260903052321 | 61 | 171 | 0.0 | 0.0 | 0.00 | 0.00 | 0.00 | 91 | 1017.5 |
| 20260903051816 | 61 | 171 | 0.0 | 0.0 | 0.00 | 0.00 | 0.00 | 91 | 1017.4 |
| 20260903051312 | 62 | 171 | 0.0 | 0.0 | 0.00 | 0.00 | 0.00 | 91 | 1017.5 |
| 20260903050807 | 61 | 171 | 0.0 | 0.0 | 0.00 | 0.00 | 0.00 | 91 | 1017.3 |
| 20260903050306 | 61 | 171 | 0.0 | 0.0 | 0.00 | 0.00 | 0.00 | 92 | 1017.4 |
| 20260903045801 | 61 | 171 | 0.0 | 0.0 | 0.00 | 0.00 | 0.00 | 91 | 1017.5 |
| 20260903045257 | 62 | 171 | 0.0 | 0.0 | 0.00 | 0.00 | 0.00 | 91 | 1017.4 |
| 20260903044753 | 61 | 171 | 0.0 | 0.0 | 0.00 | 0.00 | 0.00 | 92 | 1017.4 |
| 20260903044248 | 61 | 171 | 0.0 | 0.0 | 0.00 | 0.00 | 0.00 | 92 | 1017.6 |
| 20260903043745 | 61 | 171 | 0.0 | 0.0 | 0.00 | 0.00 | 0.00 | 93 | 1017.6 |
| 20260903043244 | 61 | 171 | 0.0 | 0.0 | 0.00 | 0.00 | 0.00 | 93 | 1017.6 |
| 20260903042743 | 61 | 171 | 0.0 | 0.0 | 0.00 | 0.00 | 0.00 | 92 | 1017.5 |
| 20260903042239 | 62 | 170 | 0.0 | 0.0 | 0.00 | 0.00 | 0.00 | 92 | 1017.5 |
| 20260903041735 | 61 | 171 | 0.0 | 0.0 | 0.00 | 0.00 | 0.00 | 92 | 1017.5 |
| 20260903041231 | 61 | 171 | 0.0 | 0.0 | 0.00 | 0.00 | 0.00 | 92 | 1017.5 |
| 20260903040725 | 62 | 171 | 0.0 | 0.0 | 0.00 | 0.00 | 0.00 | 92 | 1017.6 |
| 20260903040220 | 62 | 171 | 0.0 | 0.0 | 0.00 | 0.00 | 0.00 | 92 | 1017.3 |
| 20260903035716 | 62 | 171 | 0.0 | 0.0 | 0.00 | 0.00 | 0.00 | 91 | 1017.6 |
| 20260903035212 | 62 | 171 | 0.0 | 0.0 | 0.00 | 0.00 | 0.00 | 91 | 1017.8 |
| 20260903034711 | 62 | 171 | 0.0 | 0.0 | 0.00 | 0.00 | 0.00 | 91 | 1017.5 |
| 20260903034206 | 62 | 171 | 0.0 | 0.0 | 0.00 | 0.00 | 0.00 | 91 | 1017.4 |
| 20260903033702 | 62 | 171 | 0.0 | 0.0 | 0.00 | 0.00 | 0.00 | 90 | 1017.3 |
| 20260903033201 | 62 | 171 | 0.0 | 0.0 | 0.00 | 0.00 | 0.00 | 91 | 1017.3 |
| 20260903032656 | 62 | 171 | 0.0 | 0.0 | 0.00 | 0.00 | 0.00 | 91 | 1017.4 |
| 20260903032152 | 62 | 171 | 0.0 | 0.0 | 0.00 | 0.00 | 0.00 | 90 | 1017.5 |
| 20260903031648 | 62 | 171 | 0.0 | 0.0 | 0.00 | 0.00 | 0.00 | 90 | 1017.2 |
| 20260903031147 | 62 | 171 | 0.0 | 0.0 | 0.00 | 0.00 | 0.00 | 90 | 1017.3 |
| 20260903030643 | 62 | 171 | 0.0 | 0.0 | 0.00 | 0.00 | 0.00 | 89 | 1017.3 |
| 20260903030138 | 62 | 171 | 0.0 | 0.0 | 0.00 | 0.00 | 0.00 | 88 | 1017.6 |
| 20260903025634 | 62 | 171 | 0.0 | 0.0 | 0.00 | 0.00 | 0.00 | 88 | 1017.4 |
| 20260903025129 | 61 | 171 | 0.0 | 0.0 | 0.00 | 0.00 | 0.00 | 89 | 1017.3 |
| 20260903024624 | 61 | 171 | 0.0 | 0.0 | 0.00 | 0.00 | 0.00 | 89 | 1017.3 |
| 20260903024118 | 61 | 171 | 0.0 | 0.0 | 0.00 | 0.00 | 0.00 | 88 | 1017.3 |
| 20260903023614 | 61 | 171 | 0.0 | 0.0 | 0.00 | 0.00 | 0.00 | 87 | 1017.4 |
| 20260903023109 | 62 | 171 | 0.0 | 0.0 | 0.00 | 0.00 | 0.00 | 86 | 1017.3 |
| 20260903022608 | 62 | 171 | 0.0 | 0.0 | 0.00 | 0.00 | 0.00 | 86 | 1017.5 |
| 20260903022107 | 62 | 171 | 0.0 | 0.0 | 0.00 | 0.00 | 0.00 | 86 | 1017.3 |
| 20260903021602 | 62 | 171 | 0.0 | 0.0 | 0.00 | 0.00 | 0.00 | 85 | 1017.5 |
| 20260903021057 | 63 | 171 | 0.0 | 0.0 | 0.00 | 0.00 | 0.00 | 84 | 1017.3 |
| 20260903020552 | 63 | 170 | 0.0 | 0.0 | 0.00 | 0.00 | 0.00 | 83 | 1017.3 |
| 20260903020047 | 63 | 170 | 0.0 | 0.0 | 0.00 | 0.00 | 0.00 | 83 | 1017.3 |
| 20260903015543 | 64 | 166 | 0.0 | 0.0 | 0.00 | 0.00 | 0.00 | 81 | 1017.4 |
| 20260903015037 | 64 | 161 | 0.0 | 0.0 | 0.00 | 0.00 | 0.00 | 81 | 1017.1 |
| 20260903014536 | 64 | 167 | 0.0 | 0.0 | 0.00 | 0.00 | 0.00 | 81 | 1017.2 |
| 20260903014031 | 64 | 165 | 0.0 | 0.0 | 0.00 | 0.00 | 0.00 | 80 | 1017.1 |
| 20260903013531 | 64 | 161 | 0.0 | 0.0 | 0.00 | 0.00 | 0.00 | 81 | 1017.2 |
| 20260903013026 | 64 | 192 | 0.0 | 0.0 | 0.00 | 0.00 | 0.00 | 82 | 1017.1 |
| 20260903012520 | 64 | 192 | 0.0 | 0.0 | 0.00 | 0.00 | 0.00 | 82 | 1017.1 |
| 20260903012019 | 64 | 193 | 0.0 | 0.0 | 0.00 | 0.00 | 0.00 | 81 | 1017.2 |
| 20260903011519 | 65 | 192 | 0.0 | 1.0 | 0.00 | 0.00 | 0.00 | 81 | 1017.1 |
| 20260903011014 | 65 | 184 | 0.0 | 1.0 | 0.00 | 0.00 | 0.00 | 79 | 1017.2 |
| 20260903010509 | 65 | 190 | 0.0 | 1.0 | 0.00 | 0.00 | 0.00 | 79 | 1017.0 |
| 20260903010007 | 65 | 195 | 0.0 | 0.0 | 0.00 | 0.00 | 0.00 | 80 | 1016.8 |
| 20260903005502 | 65 | 195 | 0.0 | 0.0 | 0.00 | 0.00 | 0.00 | 79 | 1017.0 |
| 20260903004958 | 66 | 195 | 0.0 | 0.0 | 0.00 | 0.00 | 0.00 | 79 | 1017.0 |
| 20260903004453 | 66 | 200 | 0.0 | 1.0 | 0.00 | 0.00 | 0.00 | 78 | 1016.7 |
| 20260903003948 | 67 | 202 | 0.0 | 0.0 | 0.00 | 0.00 | 0.00 | 77 | 1016.7 |
| 20260903003448 | 67 | 197 | 0.0 | 1.0 | 0.00 | 0.00 | 0.00 | 76 | 1016.6 |
| 20260903002943 | 68 | 201 | 0.0 | 1.0 | 0.00 | 0.00 | 0.00 | 76 | 1016.7 |
| 20260903002438 | 68 | 221 | 0.0 | 0.0 | 0.00 | 0.00 | 0.00 | 74 | 1016.6 |
| 20260903001938 | 69 | 197 | 0.0 | 0.0 | 0.00 | 0.00 | 0.00 | 72 | 1016.6 |
| 20260903001437 | 70 | 227 | 1.0 | 1.0 | 0.00 | 0.00 | 0.00 | 71 | 1016.7 |
| 20260903000932 | 71 | 209 | 0.0 | 1.0 | 0.00 | 0.00 | 0.00 | 70 | 1016.6 |
| 20260903000428 | 72 | 271 | 0.0 | 1.0 | 0.00 | 0.00 | 0.00 | 67 | 1016.6 |
| 20260902235925 | 73 | 265 | 1.0 | 1.0 | 0.00 | 0.00 | 0.00 | 66 | 1016.8 |
| 20260902235420 | 73 | 244 | 0.0 | 1.0 | 0.00 | 0.00 | 0.00 | 65 | 1016.5 |
| 20260902234914 | 73 | 260 | 0.0 | 1.0 | 0.00 | 0.00 | 0.00 | 64 | 1016.7 |
| 20260902234409 | 73 | 259 | 1.0 | 2.0 | 0.00 | 0.00 | 0.00 | 64 | 1016.6 |
| 20260902233908 | 73 | 233 | 0.0 | 3.0 | 0.00 | 0.00 | 0.00 | 64 | 1016.7 |
| 20260902233403 | 72 | 286 | 1.0 | 1.0 | 0.00 | 0.00 | 0.00 | 64 | 1016.7 |
| 20260902232902 | 73 | 243 | 0.0 | 2.0 | 0.00 | 0.00 | 0.00 | 63 | 1016.7 |
| 20260902232356 | 72 | 315 | 1.0 | 2.0 | 0.00 | 0.00 | 0.00 | 63 | 1016.7 |
| 20260902231850 | 72 | 272 | 1.0 | 2.0 | 0.00 | 0.00 | 0.00 | 63 | 1016.9 |
| 20260902231345 | 73 | 225 | 0.0 | 1.0 | 0.00 | 0.00 | 0.00 | 63 | 1016.8 |
| 20260902230840 | 73 | 318 | 0.0 | 2.0 | 0.00 | 0.00 | 0.00 | 61 | 1016.7 |
| 20260902230339 | 74 | 287 | 1.0 | 1.0 | 0.00 | 0.00 | 0.00 | 62 | 1016.7 |
| 20260902225834 | 75 | 249 | 0.0 | 1.0 | 0.00 | 0.00 | 0.00 | 59 | 1016.8 |
| 20260902225329 | 75 | 241 | 0.0 | 1.0 | 0.00 | 0.00 | 0.00 | 60 | 1016.9 |
| 20260902224827 | 74 | 262 | 0.0 | 1.0 | 0.00 | 0.00 | 0.00 | 62 | 1016.7 |
| 20260902224322 | 73 | 275 | 0.0 | 3.0 | 0.00 | 0.00 | 0.00 | 63 | 1016.6 |
| 20260902223820 | 73 | 235 | 0.0 | 1.0 | 0.00 | 0.00 | 0.00 | 64 | 1016.8 |
| 20260902223319 | 74 | 253 | 1.0 | 3.0 | 0.00 | 0.00 | 0.00 | 62 | 1016.7 |
| 20260902222813 | 75 | 269 | 2.0 | 6.0 | 0.00 | 0.00 | 0.00 | 61 | 1016.9 |
| 20260902222306 | 76 | 190 | 2.0 | 3.0 | 0.00 | 0.00 | 0.00 | 60 | 1016.8 |
| 20260902221800 | 75 | 278 | 1.0 | 4.0 | 0.00 | 0.00 | 0.00 | 60 | 1016.8 |
| 20260902221300 | 76 | 215 | 1.0 | 3.0 | 0.00 | 0.00 | 0.00 | 60 | 1016.8 |
| 20260902220755 | 77 | 237 | 2.0 | 4.0 | 0.00 | 0.00 | 0.00 | 59 | 1016.9 |
| 20260902220255 | 76 | 287 | 1.0 | 3.0 | 0.00 | 0.00 | 0.00 | 59 | 1016.8 |
| 20260902215750 | 76 | 248 | 0.0 | 3.0 | 0.00 | 0.00 | 0.00 | 59 | 1017.0 |
| 20260902215245 | 75 | 289 | 2.0 | 4.0 | 0.00 | 0.00 | 0.00 | 60 | 1016.8 |
| 20260902214741 | 77 | 271 | 3.0 | 4.0 | 0.00 | 0.00 | 0.00 | 60 | 1016.8 |
| 20260902214240 | 78 | 275 | 0.0 | 2.0 | 0.00 | 0.00 | 0.00 | 58 | 1016.9 |
| 20260902213736 | 78 | 267 | 1.0 | 3.0 | 0.00 | 0.00 | 0.00 | 58 | 1016.7 |
| 20260902213236 | 77 | 347 | 2.0 | 2.0 | 0.00 | 0.00 | 0.00 | 58 | 1016.7 |
| 20260902212735 | 76 | 279 | 2.0 | 4.0 | 0.00 | 0.00 | 0.00 | 60 | 1016.8 |
| 20260902212233 | 77 | 286 | 1.0 | 7.0 | 0.00 | 0.00 | 0.00 | 58 | 1016.7 |
| 20260902211728 | 76 | 254 | 3.0 | 6.0 | 0.00 | 0.00 | 0.00 | 59 | 1016.7 |
| 20260902211223 | 77 | 257 | 3.0 | 6.0 | 0.00 | 0.00 | 0.00 | 59 | 1016.5 |
| 20260902210718 | 77 | 241 | 1.0 | 4.0 | 0.00 | 0.00 | 0.00 | 60 | 1016.7 |
| 20260902210214 | 76 | 258 | 4.0 | 6.0 | 0.00 | 0.00 | 0.00 | 60 | 1016.6 |
| 20260902205711 | 76 | 283 | 0.0 | 6.0 | 0.00 | 0.00 | 0.00 | 60 | 1016.6 |
| 20260902205207 | 76 | 271 | 4.0 | 8.0 | 0.00 | 0.00 | 0.00 | 59 | 1016.7 |
| 20260902204702 | 76 | 290 | 2.0 | 3.0 | 0.00 | 0.00 | 0.00 | 60 | 1016.7 |
| 20260902204156 | 77 | 61 | 3.0 | 7.0 | 0.00 | 0.00 | 0.00 | 58 | 1016.5 |
| 20260902203652 | 77 | 246 | 3.0 | 4.0 | 0.00 | 0.00 | 0.00 | 58 | 1016.5 |
| 20260902203152 | 77 | 240 | 2.0 | 8.0 | 0.00 | 0.00 | 0.00 | 58 | 1016.6 |
| 20260902202646 | 77 | 229 | 1.0 | 3.0 | 0.00 | 0.00 | 0.00 | 60 | 1016.4 |
| 20260902202143 | 77 | 240 | 0.0 | 8.0 | 0.00 | 0.00 | 0.00 | 60 | 1016.6 |
| 20260902201639 | 76 | 342 | 2.0 | 6.0 | 0.00 | 0.00 | 0.00 | 60 | 1016.7 |
| 20260902201138 | 77 | 324 | 2.0 | 3.0 | 0.00 | 0.00 | 0.00 | 58 | 1016.5 |
| 20260902200633 | 76 | 258 | 2.0 | 4.0 | 0.00 | 0.00 | 0.00 | 60 | 1016.7 |
| 20260902200130 | 77 | 348 | 2.0 | 3.0 | 0.00 | 0.00 | 0.00 | 59 | 1016.6 |
| 20260902195625 | 75 | 267 | 3.0 | 6.0 | 0.00 | 0.00 | 0.00 | 60 | 1016.7 |
| 20260902195125 | 77 | 239 | 3.0 | 6.0 | 0.00 | 0.00 | 0.00 | 61 | 1016.9 |
| 20260902194623 | 77 | 300 | 3.0 | 6.0 | 0.00 | 0.00 | 0.00 | 60 | 1016.7 |
| 20260902194119 | 76 | 305 | 3.0 | 8.0 | 0.00 | 0.00 | 0.00 | 61 | 1016.9 |
| 20260902193615 | 77 | 243 | 4.0 | 6.0 | 0.00 | 0.00 | 0.00 | 58 | 1016.9 |
| 20260902193114 | 77 | 298 | 4.0 | 6.0 | 0.00 | 0.00 | 0.00 | 58 | 1016.9 |
| 20260902192613 | 76 | 249 | 2.0 | 7.0 | 0.00 | 0.00 | 0.00 | 60 | 1016.8 |
| 20260902192112 | 76 | 258 | 4.0 | 7.0 | 0.00 | 0.00 | 0.00 | 60 | 1016.7 |
| 20260902191607 | 77 | 301 | 2.0 | 9.0 | 0.00 | 0.00 | 0.00 | 59 | 1016.8 |
| 20260902191101 | 76 | 263 | 3.0 | 7.0 | 0.00 | 0.00 | 0.00 | 59 | 1016.9 |
| 20260902190557 | 77 | 210 | 2.0 | 9.0 | 0.00 | 0.00 | 0.00 | 60 | 1016.8 |
| 20260902190052 | 77 | 274 | 5.0 | 9.0 | 0.00 | 0.00 | 0.00 | 59 | 1016.7 |
| 20260902185548 | 76 | 297 | 2.0 | 8.0 | 0.00 | 0.00 | 0.00 | 62 | 1016.8 |
| 20260902185044 | 77 | 319 | 3.0 | 7.0 | 0.00 | 0.00 | 0.00 | 61 | 1016.6 |
| 20260902184538 | 77 | 277 | 2.0 | 4.0 | 0.00 | 0.00 | 0.00 | 60 | 1016.6 |
| 20260902184034 | 76 | 301 | 5.0 | 8.0 | 0.00 | 0.00 | 0.00 | 60 | 1016.6 |
| 20260902183530 | 76 | 270 | 2.0 | 7.0 | 0.00 | 0.00 | 0.00 | 59 | 1016.8 |
| 20260902183026 | 77 | 308 | 5.0 | 8.0 | 0.00 | 0.00 | 0.00 | 59 | 1016.4 |
| 20260902182522 | 76 | 240 | 1.0 | 4.0 | 0.00 | 0.00 | 0.00 | 60 | 1016.5 |
| 20260902182018 | 75 | 293 | 2.0 | 4.0 | 0.00 | 0.00 | 0.00 | 62 | 1016.6 |
| 20260902181514 | 75 | 321 | 3.0 | 7.0 | 0.00 | 0.00 | 0.00 | 64 | 1016.7 |
| 20260902181008 | 76 | 298 | 4.0 | 7.0 | 0.00 | 0.00 | 0.00 | 62 | 1016.7 |
| 20260902180502 | 76 | 304 | 4.0 | 9.0 | 0.00 | 0.00 | 0.00 | 61 | 1016.7 |
| 20260902175959 | 76 | 209 | 2.0 | 3.0 | 0.00 | 0.00 | 0.00 | 61 | 1016.6 |
| 20260902175458 | 77 | 221 | 1.0 | 7.0 | 0.00 | 0.00 | 0.00 | 59 | 1016.5 |
| 20260902174954 | 77 | 296 | 4.0 | 6.0 | 0.00 | 0.00 | 0.00 | 60 | 1016.4 |
| 20260902174451 | 77 | 233 | 2.0 | 6.0 | 0.00 | 0.00 | 0.00 | 59 | 1016.5 |
| 20260902173946 | 76 | 258 | 3.0 | 6.0 | 0.00 | 0.00 | 0.00 | 58 | 1016.5 |
| 20260902173445 | 76 | 213 | 4.0 | 6.0 | 0.00 | 0.00 | 0.00 | 58 | 1016.3 |
| 20260902172941 | 75 | 226 | 3.0 | 8.0 | 0.00 | 0.00 | 0.00 | 60 | 1016.4 |
| 20260902172440 | 75 | 280 | 6.0 | 10.0 | 0.00 | 0.00 | 0.00 | 60 | 1016.4 |
| 20260902171935 | 76 | 309 | 1.0 | 4.0 | 0.00 | 0.00 | 0.00 | 60 | 1016.4 |
| 20260902171430 | 76 | 220 | 1.0 | 6.0 | 0.00 | 0.00 | 0.00 | 60 | 1016.3 |
| 20260902170927 | 75 | 19 | 3.0 | 9.0 | 0.00 | 0.00 | 0.00 | 60 | 1016.4 |
| 20260902170421 | 75 | 321 | 4.0 | 7.0 | 0.00 | 0.00 | 0.00 | 62 | 1016.6 |
| 20260902165917 | 75 | 255 | 2.0 | 10.0 | 0.00 | 0.00 | 0.00 | 62 | 1016.4 |
| 20260902165416 | 75 | 51 | 4.0 | 6.0 | 0.00 | 0.00 | 0.00 | 63 | 1016.5 |
| 20260902164911 | 74 | 287 | 6.0 | 7.0 | 0.00 | 0.00 | 0.00 | 62 | 1016.7 |
| 20260902164406 | 75 | 273 | 1.0 | 7.0 | 0.00 | 0.00 | 0.00 | 62 | 1016.5 |
| 20260902163905 | 75 | 238 | 2.0 | 8.0 | 0.00 | 0.00 | 0.00 | 62 | 1016.6 |
| 20260902163400 | 76 | 212 | 1.0 | 2.0 | 0.00 | 0.00 | 0.00 | 62 | 1016.5 |
| 20260902162858 | 75 | 276 | 1.0 | 2.0 | 0.00 | 0.00 | 0.00 | 64 | 1016.6 |
| 20260902162354 | 76 | 247 | 3.0 | 4.0 | 0.00 | 0.00 | 0.00 | 63 | 1016.5 |
| 20260902161854 | 75 | 206 | 1.0 | 4.0 | 0.00 | 0.00 | 0.00 | 67 | 1016.4 |
| 20260902161349 | 75 | 195 | 1.0 | 3.0 | 0.00 | 0.00 | 0.00 | 67 | 1016.3 |
| 20260902160845 | 75 | 234 | 1.0 | 2.0 | 0.00 | 0.00 | 0.00 | 68 | 1016.3 |
| 20260902160341 | 74 | 302 | 3.0 | 4.0 | 0.00 | 0.00 | 0.00 | 70 | 1016.6 |
| 20260902155838 | 74 | 204 | 1.0 | 1.0 | 0.00 | 0.00 | 0.00 | 69 | 1016.7 |
| 20260902155337 | 75 | 195 | 0.0 | 1.0 | 0.00 | 0.00 | 0.00 | 70 | 1016.7 |
| 20260902154832 | 74 | 197 | 1.0 | 2.0 | 0.00 | 0.00 | 0.00 | 69 | 1016.5 |
| 20260902154328 | 73 | 192 | 2.0 | 3.0 | 0.00 | 0.00 | 0.00 | 73 | 1016.9 |
| 20260902153827 | 73 | 80 | 1.0 | 2.0 | 0.00 | 0.00 | 0.00 | 74 | 1016.8 |
| 20260902153326 | 73 | 278 | 3.0 | 3.0 | 0.00 | 0.00 | 0.00 | 73 | 1016.9 |
| 20260902152822 | 72 | 209 | 0.0 | 4.0 | 0.00 | 0.00 | 0.00 | 74 | 1016.9 |
| 20260902152318 | 72 | 224 | 2.0 | 3.0 | 0.00 | 0.00 | 0.00 | 76 | 1017.0 |
| 20260902151814 | 71 | 222 | 0.0 | 2.0 | 0.00 | 0.00 | 0.00 | 78 | 1017.0 |
| 20260902151309 | 70 | 205 | 2.0 | 2.0 | 0.00 | 0.00 | 0.00 | 80 | 1016.9 |
| 20260902150803 | 70 | 245 | 2.0 | 3.0 | 0.00 | 0.00 | 0.00 | 79 | 1017.1 |
| 20260902150259 | 70 | 309 | 2.0 | 4.0 | 0.00 | 0.00 | 0.00 | 81 | 1016.9 |
| 20260902145759 | 70 | 263 | 1.0 | 2.0 | 0.00 | 0.00 | 0.00 | 81 | 1016.7 |
| 20260902145255 | 70 | 283 | 2.0 | 3.0 | 0.00 | 0.00 | 0.00 | 81 | 1016.8 |
| 20260902144750 | 71 | 206 | 2.0 | 3.0 | 0.00 | 0.00 | 0.00 | 79 | 1016.7 |
| 20260902144246 | 71 | 230 | 1.0 | 2.0 | 0.00 | 0.00 | 0.00 | 78 | 1016.7 |
| 20260902143746 | 70 | 304 | 2.0 | 3.0 | 0.00 | 0.00 | 0.00 | 81 | 1016.7 |
| 20260902143241 | 69 | 265 | 0.0 | 3.0 | 0.00 | 0.00 | 0.00 | 82 | 1016.6 |
| 20260902142736 | 69 | 236 | 0.0 | 3.0 | 0.00 | 0.00 | 0.00 | 84 | 1016.4 |
| 20260902142233 | 69 | 262 | 2.0 | 2.0 | 0.00 | 0.00 | 0.00 | 84 | 1016.5 |
| 20260902141732 | 69 | 219 | 0.0 | 0.0 | 0.00 | 0.00 | 0.00 | 83 | 1016.6 |
| 20260902141228 | 70 | 195 | 1.0 | 2.0 | 0.00 | 0.00 | 0.00 | 82 | 1016.6 |
| 20260902140723 | 71 | 317 | 2.0 | 6.0 | 0.00 | 0.00 | 0.00 | 79 | 1016.5 |
| 20260902140218 | 70 | 216 | 1.0 | 1.0 | 0.00 | 0.00 | 0.00 | 81 | 1016.7 |
| 20260902135717 | 69 | 222 | 1.0 | 1.0 | 0.00 | 0.00 | 0.00 | 81 | 1016.6 |
| 20260902135213 | 69 | 220 | 0.0 | 2.0 | 0.00 | 0.00 | 0.00 | 82 | 1016.7 |
| 20260902134712 | 68 | 225 | 1.0 | 2.0 | 0.00 | 0.00 | 0.00 | 84 | 1016.7 |
| 20260902134208 | 68 | 225 | 1.0 | 3.0 | 0.00 | 0.00 | 0.00 | 84 | 1016.8 |
| 20260902133703 | 66 | 257 | 0.0 | 1.0 | 0.00 | 0.00 | 0.00 | 86 | 1016.7 |
| 20260902133202 | 66 | 258 | 0.0 | 0.0 | 0.00 | 0.00 | 0.00 | 87 | 1016.5 |
| 20260902132653 | 66 | 259 | 0.0 | 0.0 | 0.00 | 0.00 | 0.00 | 87 | 1016.6 |
| 20260902132148 | 66 | 258 | 0.0 | 0.0 | 0.00 | 0.00 | 0.00 | 87 | 1016.5 |
| 20260902131644 | 66 | 258 | 0.0 | 0.0 | 0.00 | 0.00 | 0.00 | 86 | 1016.5 |
| 20260902131139 | 67 | 259 | 1.0 | 1.0 | 0.00 | 0.00 | 0.00 | 85 | 1016.5 |
| 20260902130635 | 67 | 257 | 1.0 | 2.0 | 0.00 | 0.00 | 0.00 | 84 | 1016.5 |
| 20260902130130 | 66 | 258 | 0.0 | 2.0 | 0.00 | 0.00 | 0.00 | 85 | 1016.5 |
| 20260902125625 | 66 | 259 | 0.0 | 2.0 | 0.00 | 0.00 | 0.00 | 85 | 1016.7 |
| 20260902125120 | 66 | 259 | 0.0 | 1.0 | 0.00 | 0.00 | 0.00 | 86 | 1016.7 |
| 20260902124617 | 66 | 270 | 1.0 | 2.0 | 0.00 | 0.00 | 0.00 | 85 | 1016.4 |
| 20260902124117 | 66 | 275 | 1.0 | 2.0 | 0.00 | 0.00 | 0.00 | 84 | 1016.5 |
| 20260902123613 | 66 | 258 | 1.0 | 1.0 | 0.00 | 0.00 | 0.00 | 85 | 1016.6 |
| 20260902123108 | 65 | 263 | 1.0 | 1.0 | 0.00 | 0.00 | 0.00 | 87 | 1016.7 |
| 20260902122607 | 65 | 256 | 0.0 | 2.0 | 0.00 | 0.00 | 0.00 | 87 | 1016.6 |
| 20260902122103 | 65 | 254 | 0.0 | 2.0 | 0.00 | 0.00 | 0.00 | 87 | 1016.5 |
| 20260902121602 | 65 | 262 | 0.0 | 1.0 | 0.00 | 0.00 | 0.00 | 88 | 1016.5 |
| 20260902121057 | 64 | 256 | 0.0 | 0.0 | 0.00 | 0.00 | 0.00 | 89 | 1016.6 |
| 20260902120553 | 64 | 260 | 0.0 | 1.0 | 0.00 | 0.00 | 0.00 | 89 | 1016.4 |
| 20260902120049 | 64 | 258 | 0.0 | 1.0 | 0.00 | 0.00 | 0.00 | 89 | 1016.4 |
| 20260902115544 | 64 | 249 | 0.0 | 0.0 | 0.00 | 0.00 | 0.00 | 89 | 1016.4 |
| 20260902115041 | 64 | 272 | 1.0 | 2.0 | 0.00 | 0.00 | 0.00 | 89 | 1016.9 |
| 20260902114536 | 64 | 244 | 1.0 | 1.0 | 0.00 | 0.00 | 0.00 | 89 | 1016.6 |
| 20260902114030 | 64 | 257 | 0.0 | 1.0 | 0.00 | 0.00 | 0.00 | 89 | 1016.5 |
| 20260902113526 | 64 | 267 | 1.0 | 2.0 | 0.00 | 0.00 | 0.00 | 88 | 1016.6 |
| 20260902113021 | 64 | 268 | 1.0 | 1.0 | 0.00 | 0.00 | 0.00 | 88 | 1016.6 |
| 20260902112516 | 64 | 259 | 0.0 | 0.0 | 0.00 | 0.00 | 0.00 | 88 | 1016.4 |
| 20260902112013 | 64 | 271 | 1.0 | 2.0 | 0.00 | 0.00 | 0.00 | 88 | 1016.5 |
| 20260902111509 | 64 | 269 | 0.0 | 1.0 | 0.00 | 0.00 | 0.00 | 88 | 1016.4 |
| 20260902111004 | 63 | 286 | 1.0 | 2.0 | 0.00 | 0.00 | 0.00 | 88 | 1016.4 |
| 20260902110500 | 63 | 260 | 0.0 | 0.0 | 0.00 | 0.00 | 0.00 | 89 | 1016.2 |
| 20260902105955 | 63 | 267 | 1.0 | 1.0 | 0.00 | 0.00 | 0.00 | 89 | 1016.4 |
| 20260902105450 | 63 | 257 | 0.0 | 0.0 | 0.00 | 0.00 | 0.00 | 89 | 1016.2 |
| 20260902104944 | 64 | 263 | 0.0 | 0.0 | 0.00 | 0.00 | 0.00 | 88 | 1016.2 |
| 20260902104440 | 64 | 274 | 1.0 | 1.0 | 0.00 | 0.00 | 0.00 | 89 | 1016.4 |
| 20260902103935 | 64 | 260 | 0.0 | 1.0 | 0.00 | 0.00 | 0.00 | 89 | 1016.4 |
| 20260902103430 | 63 | 229 | 0.0 | 2.0 | 0.00 | 0.00 | 0.00 | 89 | 1016.5 |
| 20260902102925 | 63 | 235 | 0.0 | 0.0 | 0.00 | 0.00 | 0.00 | 90 | 1016.5 |
| 20260902102422 | 63 | 235 | 0.0 | 1.0 | 0.00 | 0.00 | 0.00 | 89 | 1016.3 |
| 20260902101918 | 63 | 250 | 0.0 | 0.0 | 0.00 | 0.00 | 0.00 | 89 | 1016.2 |
| 20260902101412 | 64 | 259 | 0.0 | 0.0 | 0.00 | 0.00 | 0.00 | 88 | 1016.4 |
| 20260902100911 | 64 | 263 | 1.0 | 2.0 | 0.00 | 0.00 | 0.00 | 88 | 1016.1 |
| 20260902100406 | 64 | 270 | 1.0 | 2.0 | 0.00 | 0.00 | 0.00 | 88 | 1016.2 |
| 20260902095901 | 64 | 252 | 0.0 | 0.0 | 0.00 | 0.00 | 0.00 | 89 | 1016.1 |
| 20260902095401 | 64 | 251 | 0.0 | 1.0 | 0.00 | 0.00 | 0.00 | 89 | 1016.2 |
| 20260902094855 | 64 | 241 | 0.0 | 1.0 | 0.00 | 0.00 | 0.00 | 89 | 1016.0 |
| 20260902094351 | 64 | 260 | 0.0 | 0.0 | 0.00 | 0.00 | 0.00 | 89 | 1016.3 |
| 20260902093850 | 64 | 253 | 0.0 | 0.0 | 0.00 | 0.00 | 0.00 | 89 | 1016.2 |
| 20260902093346 | 63 | 234 | 0.0 | 0.0 | 0.00 | 0.00 | 0.00 | 89 | 1016.3 |
| 20260902092844 | 63 | 358 | 2.0 | 2.0 | 0.00 | 0.00 | 0.00 | 90 | 1016.1 |
| 20260902092340 | 63 | 245 | 0.0 | 0.0 | 0.00 | 0.00 | 0.00 | 91 | 1016.2 |
| 20260902091835 | 63 | 246 | 0.0 | 0.0 | 0.00 | 0.00 | 0.00 | 91 | 1015.9 |
| 20260902091330 | 63 | 246 | 0.0 | 0.0 | 0.00 | 0.00 | 0.00 | 91 | 1015.7 |
| 20260902090827 | 63 | 246 | 0.0 | 0.0 | 0.00 | 0.00 | 0.00 | 91 | 1015.9 |
| 20260902090326 | 63 | 247 | 0.0 | 0.0 | 0.00 | 0.00 | 0.00 | 91 | 1015.8 |
| 20260902085825 | 63 | 251 | 0.0 | 0.0 | 0.00 | 0.00 | 0.00 | 91 | 1015.6 |
| 20260902085321 | 63 | 229 | 0.0 | 0.0 | 0.00 | 0.00 | 0.00 | 91 | 1015.7 |
| 20260902084816 | 63 | 217 | 0.0 | 0.0 | 0.00 | 0.00 | 0.00 | 91 | 1015.5 |
| 20260902084313 | 63 | 234 | 0.0 | 0.0 | 0.00 | 0.00 | 0.00 | 91 | 1015.7 |
| 20260902083807 | 62 | 220 | 0.0 | 0.0 | 0.00 | 0.00 | 0.00 | 92 | 1016.1 |
| 20260902083302 | 62 | 220 | 0.0 | 0.0 | 0.00 | 0.00 | 0.00 | 92 | 1015.9 |
| 20260902082802 | 62 | 220 | 0.0 | 0.0 | 0.00 | 0.00 | 0.00 | 92 | 1015.8 |
| 20260902082259 | 62 | 220 | 0.0 | 0.0 | 0.00 | 0.00 | 0.00 | 92 | 1015.8 |
| 20260902081755 | 62 | 219 | 0.0 | 1.0 | 0.00 | 0.00 | 0.00 | 91 | 1015.6 |
| 20260902081250 | 62 | 255 | 0.0 | 0.0 | 0.00 | 0.00 | 0.00 | 91 | 1015.7 |
| 20260902080746 | 62 | 261 | 0.0 | 0.0 | 0.00 | 0.00 | 0.00 | 92 | 1015.8 |
| 20260902080243 | 62 | 258 | 0.0 | 1.0 | 0.00 | 0.00 | 0.00 | 93 | 1015.7 |